Torna al catalogo

YAOGAN 20B

AttivoMilitareLEO
NORAD 40110·PAYLOAD·🇨🇳 China

Lanciato Aug 9, 2014 da Jiuquan Satellite Launch Center

Loading…

Prossimi Passaggi (prossime 24 ore)

TLE

AggiornatoSource: Space-Track

Epoca: Sep 14, 2026, 15:02 UTC

1 40110U 14047B   26257.62672624 -.00000074  00000-0  17273-4 0  9995
2 40110  63.3781 149.4039 0397914  15.1907 346.0669 13.45446248594319

Traccia YAOGAN 20B in tempo reale con AllMySat

Download on the App Store